Location: Unspecified
(0.0000°N, 0.0000°E)
Time: 08:58:07
(UTC+00:00)

SKYMED 2 - Visible Passes

Search period start: 22 April 2018 00:00
Search period end: 02 May 2018 00:00
Orbit: 621 x 624 km, 97.9° (Epoch: 21 April)

Date Brightness Start Highest point End Pass type
(mag) Time Alt. Az. Time Alt. Az. Time Alt. Az.
22 Apr 6.9 04:50:39 10° ESE 04:53:18 16° ENE 04:55:57 10° NE visible
22 Apr 7.0 18:35:32 10° NW 18:38:07 16° WNW 18:40:43 10° WSW visible
23 Apr 5.9 05:07:33 10° SE 05:11:17 28° ENE 05:14:59 10° NNE visible
24 Apr 4.6 05:25:03 10° SSE 05:29:16 51° ENE 05:33:27 10° N visible
27 Apr 7.0 04:45:17 10° ESE 04:47:19 13° ENE 04:49:20 10° NE visible
27 Apr 6.8 18:29:04 10° NNW 18:32:07 19° WNW 18:35:11 10° WSW visible
28 Apr 6.3 05:01:50 10° SE 05:05:17 23° ENE 05:08:44 10° NNE visible
28 Apr 7.6 18:49:26 10° WNW 18:50:05 10° WNW 18:50:45 10° W visible
29 Apr 5.1 05:19:10 10° SSE 05:23:16 42° ENE 05:27:20 10° N visible
